Location: Unspecified
(0.0000°N, 0.0000°E)
Time: 03:49:51
(UTC+00:00)

STARLINK-5296 - Pass Details

Date: 25 January 2023
Orbit: 213 x 298 km, 70.0° (Epoch: 25 January)

Event Time Altitude Azimuth Distance (km) Brightness Sun altitude
Rises 19:14:47 0° 206° (SSW) 1,986 7.2 -14.8°
Reaches altitude 10° 19:16:45 10° 213° (SSW) 1,157 6.1 -15.2°
Maximum altitude 19:19:11 42° 286° (WNW) 433 3.5 -15.8°
Enters shadow 19:20:36 20° 350° (N) 761 4.2 -16.1°
